Location: Krakow
(50.0830°N, 19.9170°E)
Time: 04:35:42
(UTC+01:00)

SR - Pass Details

Date: 17 February 2023
Orbit: 582 x 867 km, 66.7° (Epoch: 20 March)

Event Time Altitude Azimuth Distance (km) Brightness Sun altitude
Rises 19:15:43 0° 321° (NW) 2,844 ? -22.1°
Reaches altitude 10° 19:17:59 10° 319° (NW) 1,922 ? -22.5°
Maximum altitude 19:22:14 69° 237° (WSW) 628 ? -23.1°
Enters shadow 19:22:54 57° 184° (S) 691 ? -23.2°
Drops below altitude 10° 19:26:27 10° 154° (SSE) 1,910 - -23.8°
Sets 19:28:42 0° 152° (SSE) 2,824 - -24.2°
